Back to catalog

STARLINK-31519

AliveCommunicationsVLEO
NORAD 59546·PAYLOAD·🇺🇸 United States

Launched Apr 18, 2024 from Cape Canaveral Space Force Station

Loading…

Next Passes (next 24 hours)

TLE

FreshSource: CelesTrak SupGP

Epoch: Sep 14, 2026, 21:14 UTC

1 59546C 24074N   26257.88520833  .00000844  00000+0  30582-4 0  2579
2 59546  43.0015 354.6908 0001496 276.4161  78.6230 15.27568014    12

Track STARLINK-31519 in real time with AllMySat

Download on the App Store